Location: ??????
(41.3164°N, 22.6615°E)
Time: 03:44:36
(UTC+00:00)

CUBEBUG 2 - Pass Details

Date: 30 June 2022
Orbit: 584 x 692 km, 97.7° (Epoch: 17 August)

Event Time Altitude Azimuth Distance (km) Brightness Sun altitude
Rises 00:15:50 0° 34° (NE) 2,833 ? -21.2°
Reaches altitude 10° 00:19:07 10° 63° (ENE) 1,941 ? -21.0°
Maximum altitude 00:21:06 13° 91° (E) 1,753 ? -20.8°
Drops below altitude 10° 00:23:06 10° 120° (ESE) 1,957 ? -20.6°
Enters shadow 00:24:14 - 132° (SE) 2,211 ? -20.5°
